User: anonymous   Login
Location: Unspecified
(0.0000°N, 0.0000°E)
Time: 05:36:14
(UTC+00:00)
Language:

Okean 2 - Orbit

View from above orbital plane
View from above orbital plane
View from above satellite
View from above satellite

Ground track
Ground track

The orbit data is extracted from the following two-line orbital elements,

1 20510U 90018A   18018.82923970  .00000168  00000-0  11614-4 0  9996
2 20510  82.5175 324.3676 0011738 341.3891  48.6893 14.99081027513758
Epoch (UTC): 18 January 2018 19:54:06
Eccentricity: 0.0011738
inclination: 82.5175°
perigee height: 561 km
apogee height: 578 km
right ascension of ascending node: 324.3676°
argument of perigee: 341.3891°
revolutions per day: 14.99081027
mean anomaly at epoch: 48.6893°
orbit number at epoch: 51375

The dashed part of the orbit path shows where the satellite is in the earth's shadow,  

DLR